Погода в Керки

Погода в Керки : погода сейчас, прогноз погоды и архив. Всё, что Вы хотите узнать о погоде в Керки!

Хотите узнать прогноз погоды в Керки? Тогда Вам сюда: Погода в Керки

Поиск расширенной информации на нашем сайте:

Другие новости

Новости СМИ2

Главная страница сайта

Новости сайта

03.07.2017

Напоминаем, что на нашем специализированном сайте Метеоцентр.Азия вы можете получить высокодетализированные автоматические прогнозы погоды по пунктам России, СНГ и мира в авиационном формате (включающие направление и скорость ветра, видимость, явления погоды, количество и форму облачности, нижнюю и верхнюю границу облачности).

Рекомендуем: Свежая информация старые книги купить на сайте.

Погода в Керки - сегодня

Время (UTC), дата Ветер
(°,м/с) 
Видим.   Явления Облачность Т
(°С)
Тd
(°С)
f(%) Тe
(°С)
Pmin
(гПа)
dP
(гПа)
Po
(мм)
O2
(г/м3)
Тmin Tmax R s Состояние
почвы
12 17.02.18 050 (СВ) 20000 м    9/0 средняя 
[Ac As]
+11.4 +1.5 51 +11  1027.1  -2.1  748  289           
15 17.02.18 030 (СВ) 10 км    8/0 средняя 
[Ac As]
+9.8 +0.2 51 +11  1026.2  -1.1  748  291    +12.3       
18 17.02.18 010 (С) 10 км    9/0 средняя 
[Ac As]
+8 +4.1 76 +8  1025.7  -0.6  747  292    +12.3       
21 17.02.18 040 (СВ) 10 км    10/0 средняя 
[Ac As]
+6.8 +3.8 81 +7  1024.4  -1.4  746  293           
00 18.02.18 тихо ()   10 км    9/0 средняя, верхняя 
[Ac As|Ci sp]
+6 +3.4 83 +6  1023.4  -1.1  745  293           
03 18.02.18 350 (С) 20000 м    6/0 верхняя 
[Ci sp]
+3.2 +1.1 86 +3  1024.1  0.4  746  297           
06 18.02.18 040 (СВ) 20000 м    6/0 верхняя 
[Ci sp]
+8.8 +0.9 58 +9  1023.5  746  291  +3.2         
09 18.02.18 070 (В) 20000 м    4/0 верхняя 
[Ci fib]
+15.8 -3 27 +17  1020.7  -2  744  284           
12 18.02.18 030 (СВ) 20000 м    4/0 верхняя 
[Ci fib]
+17.2 -4.7 22 +18  1019.1  -1.4  743  282           
15 18.02.18 030 (СВ) 10 км    3/0 верхняя 
[Ci sp]
+12.6 -3 34 +13  1019.1  -0.5  743  286    +17.6       
18 18.02.18 050 (СВ) 10 км    ясно 
+9 +4.3 72 +9  1017.5  -1.9  741  288    +17.6       
21 18.02.18 050 (СВ) 10 км    ясно 
+7 +3.4 78 +7  1015.4  -2.2  740  290           
00 19.02.18 тихо ()   10 км    4/0 верхняя 
[Ci sp]
+5.2 +3.3 88 +5  1013.8  -1.7  738  291           
03 19.02.18 тихо ()   20000 м    8/0 средняя, верхняя 
[Ac As|Ci sp]
+4.9 +3.5 91 +5  1013.6  -0.2  738  292           
06 19.02.18 тихо ()   20000 м    10/0 средняя 
[Ac As]
+10 +3 62 +10  1012.5  -0.6  738  286  +4.6         
09 19.02.18 010 (С) 20000 м    8/0 верхняя 
[Ci sp]
+18.2 -0.7 28 +19  1010.3  -1.4  737  278           
12 19.02.18 тихо ()   20000 м    8/0 средняя 
[Ac As]
+20.2 -3.6 20 +20  1008.3  -1.7  735  276           
15 19.02.18 тихо ()   10 км    9/0 средняя, верхняя 
[Ac As|Ci sp]
+17 +1.1 34 +17  1008.9  0.3  736  279    +21       
18 19.02.18 300 (СЗ) 10 км    10/3 1000 м кучево-дожд., средняя 
[Cb cap|Ac As]
+14.8 +0.2 37 +15  1010.4  1.1  736  281    +21       
21 19.02.18 270 (З) 10 км    8/0 средняя, верхняя 
[Ac As|Ci sp]
+10.3 -0.2 48 +9  1011.5  0.7  737  286           
00 20.02.18 270 (З) 10 км    10/3 1000 м кучево-дожд., средняя 
[Cb cap|Ac As]
+8.2 +0.6 59 +7  1014  2.2  739  289           
03 20.02.18 110 (В) 20000 м    ясно 
-3.2 -4.2 93 -4  1034  1.3  752  307  -5.1        замёрзшая 
06 20.02.18 290 (З) 20000 м    9/0 средняя, верхняя 
[Ac As|Ci sp]
+3.2 -3.2 63 +2  1030.1  3.2  750  299  -3.2         
09 20.02.18 280 (З) 20000 м  слаб. ливневой дождь  10/4 1000 м кучево-дожд., средняя 
[Cb cap|Ac As]
+4.8 +3.3 90 +4  1018.9  0.5  742  293           
12 20.02.18 270 (З) 20000 м  {ливн. осадки}  10/0 средняя 
[Ac As]
+6.8 +5 88 +5  1020.8  743  291           
Время (UTC), дата Ветер
(°,м/с) 
Видим.   Явления Облачность Т
(°С)
Тd
(°С)
f(%) Тe
(°С)
Pmin
(гПа)
dP
(гПа)
Po
(мм)
O2
(г/м3)
Тmin Tmax R s Состояние
почвы

Для получения пояснительной информации подведите курсор к названию столбца.

ПОГОДА в Керки - архив

Всё, что Вы хотите узнать о погоде в Керки - удобно и подробно!

Выберите нужную дату (начиная с 1 января 2015* года) и нажмите кнопку "Найти".
Будут отображены архивные сводки погоды по пункту Керки, начиная с указанной даты.


Отображать данные в формате CSV (для использования в таблицах Excel)


Внимание! Наш архив погоды предназначен исключительно для личного некоммерческого использования в познавательных целях. Если Вам необходимы официальные справки о состоянии погоды (для производственных, юридических, коммерческих и т.п. целей), обращайтесь в органы Росгидромета.

*Примечание: данная дата относится к архиву по метеостанциям СССР (Россия, СНГ, Балтия).
Архив по метеостанциям Зарубежной Европы и Азии (кроме Китая) хранится 10 дней, по другим регионам земного шара (Китай, Африка, Америка, Австралия, Океания) - 1 день.

Керки - район местоположения метеостанции


Название, широта, долгота, высота метеостанции:
Керки 37.8°ш. 65.2°д. 240 м над ур. моря [Туркменистан]

Дополнительная информация

В oтличие oт бoльшинства пoгoдных сайтoв мы публикуем пoдрoбную метеoинфoрмацию в детальнoм прoфессиoнальнoм фoрмате.

Характеристики температуры и влажнoсти вoздуха измеряются на высoте 2 м в тени вдали oт зданий и деревьев.
Скoрoсть ветра измеряется на высoте 10 м (на урoвне рoста челoвека скoрoсть ветра ниже в 1.5-2 раза). Если метеoстанция нахoдится в гoрoде или в лесу, тo скoрoсть ветра занижена на 2-4 м/с пo сравнению с oткрытым местoм. Скoрoсть ветра над акватoриями крупных рек и oзёр, а также на вершинах хoлмoв на 2-5 м/с выше, чем в oбычных услoвиях.
Атмoсфернoе давление в разных тoчках местнoсти мoжет значительнo oтличаться oт давления на метеoстанции, в зависимoсти oт услoвий рельефа (при пoдъёме на 10 м давление пoнижается примернo на 1 мм рт.ст.).